sat.trackr.live / text

‹ back to catalog

UNKNOWN

NORAD 81390

UNKNOWN UNKNOWN UNKNOWN

§ Identity

Operator
Country
Launch date
Launch site
Launch vehicle
Mass (kg)
RCS (m²)

External: N2YO · Heavens-Above

§ Orbital elements

Epoch: 2026-09-09T23:08:55.182048Z

Period
116.54 min
Inclination
103.0953°
Eccentricity
0.0180559
Mean motion
12.35638730 rev/d
Perigee alt
1,382.4 km
Apogee alt
1,667.8 km
Semi-major
7,903.3 km
B*
1.5061e-3
RAAN
164.6552°
Arg perigee
29.3152°
Mean anomaly
331.7894°
Rev number
53,359

§ Raw data

UNKNOWN1 81390U          26252.96452757  .00000151  00000+0  15061-2 0  99942 81390 103.0953 164.6552 0180559  29.3152 331.7894 12.35638730533591

JSON: /api/v1/satellites/81390 · /tle

For live sub-satellite position, see the globe view (requires WebGL).

§ Visibility from observer

Set your observer location to see the next 7 days of passes ≥ 10°. The values pass through the URL so the page stays shareable.

No JS? Fill the form by hand. The geolocation button needs JavaScript.